| time (UTC) | temp C | wind direction | speed KPH | gust KPH | rain 1hr cm | rain 24hr cm | rain mn cm | humidity % | barometer mb |
| 20260510060036 | 11 | 221 | 8.0 | 0.0 | 0.00 | 0.00 | 0.00 | 92 | 1005.0 |
| 20260510054514 | 11 | 264 | 8.0 | 0.0 | 0.00 | 0.00 | 0.00 | 92 | 1005.0 |
| 20260510053012 | 11 | 189 | 9.7 | 0.0 | 0.00 | 0.00 | 0.00 | 92 | 1004.9 |
| 20260510051510 | 11 | 189 | 9.7 | 0.0 | 0.00 | 0.00 | 0.00 | 92 | 1004.7 |
| 20260510050007 | 11 | 196 | 8.0 | 0.0 | 0.00 | 0.00 | 0.00 | 92 | 1004.7 |
| 20260510044504 | 11 | 195 | 8.0 | 0.0 | 0.00 | 0.00 | 0.00 | 92 | 1004.4 |
| 20260510043145 | 11 | 225 | 9.7 | 0.0 | 0.00 | 0.00 | 0.00 | 92 | 1003.9 |
| 20260510041557 | 11 | 188 | 8.0 | 0.0 | 0.00 | 0.00 | 0.00 | 91 | 1003.8 |
| 20260510040055 | 12 | 203 | 9.7 | 0.0 | 0.00 | 0.00 | 0.00 | 91 | 1003.5 |
| 20260510034555 | 12 | 225 | 8.0 | 0.0 | 0.00 | 0.00 | 0.30 | 90 | 1003.7 |
| 20260510033057 | 12 | 205 | 8.0 | 0.0 | 0.00 | 0.00 | 0.30 | 89 | 1003.7 |
| 20260510031624 | 12 | 252 | 6.4 | 0.0 | 0.00 | 0.00 | 0.30 | 89 | 1003.8 |
| 20260510030053 | 12 | 202 | 11.3 | 0.0 | 0.00 | 0.00 | 0.30 | 88 | 1003.5 |
| 20260510024551 | 12 | 205 | 12.9 | 0.0 | 0.00 | 0.00 | 0.28 | 86 | 1003.7 |
| 20260510023057 | 13 | 192 | 14.5 | 0.0 | 0.00 | 0.00 | 0.18 | 81 | 1003.6 |
| 20260510021547 | 14 | 131 | 16.1 | 0.0 | 0.00 | 0.00 | 0.00 | 73 | 1003.1 |
| 20260510020049 | 15 | 167 | 14.5 | 0.0 | 0.00 | 0.00 | 0.00 | 69 | 1002.8 |
| 20260510014545 | 15 | 185 | 12.9 | 0.0 | 0.00 | 0.00 | 0.00 | 69 | 1002.9 |
| 20260510013043 | 15 | 157 | 11.3 | 0.0 | 0.00 | 0.00 | 0.00 | 67 | 1003.2 |
| 20260510011555 | 15 | 167 | 11.3 | 0.0 | 0.00 | 0.00 | 0.00 | 66 | 1003.2 |
| 20260510010050 | 15 | 168 | 9.7 | 0.0 | 0.00 | 0.00 | 0.00 | 63 | 1003.3 |
| 20260510004541 | 16 | 184 | 9.7 | 0.0 | 0.00 | 0.00 | 0.00 | 60 | 1003.4 |
| 20260510003041 | 16 | 183 | 11.3 | 0.0 | 0.00 | 0.00 | 0.00 | 59 | 1003.3 |
| 20260510001538 | 16 | 187 | 11.3 | 0.0 | 0.00 | 0.00 | 0.00 | 58 | 1003.5 |
| 20260510000037 | 16 | 160 | 9.7 | 0.0 | 0.00 | 0.00 | 0.00 | 58 | 1003.8 |
| 20260509234537 | 16 | 250 | 12.9 | 0.0 | 0.00 | 0.00 | 0.00 | 58 | 1004.0 |
| 20260509233037 | 16 | 198 | 14.5 | 0.0 | 0.00 | 0.00 | 0.00 | 58 | 1004.2 |
| 20260509231536 | 17 | 194 | 12.9 | 0.0 | 0.00 | 0.00 | 0.00 | 58 | 1004.3 |
| 20260509230036 | 17 | 188 | 19.3 | 0.0 | 0.00 | 0.00 | 0.00 | 56 | 1004.2 |
| 20260509224535 | 17 | 205 | 16.1 | 0.0 | 0.00 | 0.00 | 0.00 | 54 | 1003.9 |
| 20260509223035 | 18 | 192 | 16.1 | 0.0 | 0.00 | 0.00 | 0.00 | 48 | 1003.9 |
| 20260509221537 | 18 | 189 | 12.9 | 0.0 | 0.00 | 0.00 | 0.00 | 46 | 1003.8 |
| 20260509220037 | 18 | 212 | 12.9 | 0.0 | 0.00 | 0.00 | 0.00 | 45 | 1003.5 |
| 20260509214530 | 18 | 200 | 17.7 | 0.0 | 0.00 | 0.00 | 0.00 | 43 | 1003.8 |
| 20260509213031 | 19 | 177 | 17.7 | 0.0 | 0.00 | 0.00 | 0.00 | 43 | 1003.9 |
| 20260509211553 | 20 | 182 | 14.5 | 0.0 | 0.00 | 0.00 | 0.00 | 40 | 1004.1 |
| 20260509210029 | 19 | 162 | 16.1 | 0.0 | 0.00 | 0.00 | 0.00 | 39 | 1003.9 |
| 20260509204527 | 20 | 175 | 17.7 | 0.0 | 0.00 | 0.00 | 0.00 | 38 | 1004.0 |
| 20260509203038 | 20 | 179 | 16.1 | 0.0 | 0.00 | 0.00 | 0.00 | 35 | 1004.2 |
| 20260509201525 | 21 | 207 | 14.5 | 0.0 | 0.00 | 0.00 | 0.00 | 33 | 1004.2 |
| 20260509200025 | 20 | 166 | 16.1 | 0.0 | 0.00 | 0.00 | 0.00 | 31 | 1004.4 |
| 20260509194522 | 21 | 193 | 16.1 | 0.0 | 0.00 | 0.00 | 0.00 | 30 | 1004.4 |
| 20260509193022 | 21 | 185 | 16.1 | 0.0 | 0.00 | 0.00 | 0.00 | 30 | 1004.7 |
| 20260509191520 | 21 | 157 | 17.7 | 0.0 | 0.00 | 0.00 | 0.00 | 30 | 1004.6 |
| 20260509190023 | 21 | 173 | 24.1 | 0.0 | 0.00 | 0.00 | 0.00 | 28 | 1005.0 |
| 20260509184515 | 21 | 203 | 14.5 | 0.0 | 0.00 | 0.00 | 0.00 | 28 | 1005.3 |
| 20260509183018 | 21 | 211 | 14.5 | 0.0 | 0.00 | 0.00 | 0.00 | 30 | 1005.7 |
| 20260509181509 | 20 | 183 | 11.3 | 0.0 | 0.00 | 0.00 | 0.00 | 32 | 1006.0 |
| 20260509180006 | 20 | 177 | 16.1 | 0.0 | 0.00 | 0.00 | 0.00 | 29 | 1006.1 |
| 20260509174507 | 20 | 192 | 14.5 | 0.0 | 0.00 | 0.00 | 0.00 | 29 | 1006.4 |
| 20260509173003 | 20 | 159 | 17.7 | 0.0 | 0.00 | 0.00 | 0.00 | 29 | 1006.4 |
| 20260509171609 | 20 | 167 | 16.1 | 0.0 | 0.00 | 0.00 | 0.00 | 29 | 1006.6 |
| 20260509170057 | 19 | 195 | 16.1 | 0.0 | 0.00 | 0.00 | 0.00 | 29 | 1007.0 |
| 20260509164555 | 19 | 215 | 12.9 | 0.0 | 0.00 | 0.00 | 0.00 | 30 | 1007.2 |
| 20260509163100 | 18 | 180 | 14.5 | 0.0 | 0.00 | 0.00 | 0.00 | 29 | 1007.5 |
| 20260509161550 | 18 | 186 | 14.5 | 0.0 | 0.00 | 0.00 | 0.00 | 30 | 1007.7 |
| 20260509160046 | 18 | 168 | 12.9 | 0.0 | 0.00 | 0.00 | 0.00 | 32 | 1007.8 |
| 20260509154542 | 18 | 234 | 16.1 | 0.0 | 0.00 | 0.00 | 0.00 | 31 | 1008.3 |
| 20260509153038 | 17 | 213 | 14.5 | 0.0 | 0.00 | 0.00 | 0.00 | 35 | 1008.7 |
| 20260509151534 | 17 | 190 | 16.1 | 0.0 | 0.00 | 0.00 | 0.00 | 37 | 1008.9 |
| 20260509150030 | 17 | 182 | 14.5 | 0.0 | 0.00 | 0.00 | 0.00 | 39 | 1009.1 |
| 20260509144526 | 17 | 191 | 12.9 | 0.0 | 0.00 | 0.00 | 0.00 | 39 | 1009.2 |
| 20260509143028 | 16 | 220 | 11.3 | 0.0 | 0.00 | 0.00 | 0.00 | 44 | 1009.3 |
| 20260509141519 | 15 | 158 | 8.0 | 0.0 | 0.00 | 0.00 | 0.00 | 48 | 1009.5 |
| 20260509140013 | 13 | 195 | 4.8 | 0.0 | 0.00 | 0.00 | 0.00 | 49 | 1009.6 |
| 20260509134509 | 13 | 122 | 6.4 | 0.0 | 0.00 | 0.00 | 0.00 | 51 | 1009.7 |
| 20260509133005 | 12 | 144 | 6.4 | 0.0 | 0.00 | 0.00 | 0.00 | 51 | 1009.9 |
| 20260509131601 | 11 | 180 | 4.8 | 0.0 | 0.00 | 0.00 | 0.00 | 53 | 1010.1 |
| 20260509130100 | 10 | 199 | 8.0 | 0.0 | 0.00 | 0.00 | 0.00 | 55 | 1010.3 |
| 20260509124605 | 10 | 142 | 9.7 | 0.0 | 0.00 | 0.00 | 0.00 | 55 | 1010.4 |
| 20260509123048 | 9 | 187 | 6.4 | 0.0 | 0.00 | 0.00 | 0.00 | 57 | 1010.5 |
| 20260509121543 | 8 | 136 | 6.4 | 0.0 | 0.00 | 0.00 | 0.00 | 61 | 1010.5 |
| 20260509120040 | 7 | 191 | 6.4 | 0.0 | 0.00 | 0.00 | 0.00 | 63 | 1010.6 |
| 20260509114538 | 7 | 167 | 4.8 | 0.0 | 0.00 | 0.00 | 0.00 | 65 | 1010.5 |
| 20260509113033 | 6 | 156 | 4.8 | 0.0 | 0.00 | 0.00 | 0.00 | 67 | 1010.4 |
| 20260509111510 | 6 | 162 | 1.6 | 0.0 | 0.00 | 0.00 | 0.00 | 69 | 1010.4 |
| 20260509110009 | 5 | 173 | 6.4 | 0.0 | 0.00 | 0.00 | 0.00 | 72 | 1010.3 |
| 20260509104508 | 4 | 138 | 6.4 | 0.0 | 0.00 | 0.00 | 0.00 | 75 | 1010.0 |
| 20260509103001 | 3 | 150 | 3.2 | 0.0 | 0.00 | 0.00 | 0.00 | 78 | 1010.0 |
| 20260509101558 | 3 | 173 | 4.8 | 0.0 | 0.00 | 0.00 | 0.00 | 78 | 1010.0 |
| 20260509100108 | 3 | 153 | 4.8 | 0.0 | 0.00 | 0.00 | 0.00 | 78 | 1010.0 |
| 20260509094552 | 3 | 157 | 1.6 | 0.0 | 0.00 | 0.00 | 0.00 | 78 | 1010.1 |
| 20260509093050 | 3 | 158 | 0.0 | 0.0 | 0.00 | 0.00 | 0.00 | 77 | 1010.0 |
| 20260509091550 | 3 | 170 | 3.2 | 0.0 | 0.00 | 0.00 | 0.00 | 77 | 1009.9 |
| 20260509090047 | 4 | 188 | 3.2 | 0.0 | 0.00 | 0.00 | 0.00 | 76 | 1009.9 |
| 20260509084550 | 4 | 164 | 4.8 | 0.0 | 0.00 | 0.00 | 0.00 | 76 | 1009.8 |
| 20260509083046 | 4 | 167 | 4.8 | 0.0 | 0.00 | 0.00 | 0.00 | 76 | 1010.0 |
| 20260509081544 | 4 | 185 | 3.2 | 0.0 | 0.00 | 0.00 | 0.00 | 75 | 1010.1 |
| 20260509074541 | 4 | 192 | 4.8 | 0.0 | 0.00 | 0.00 | 0.00 | 74 | 1010.1 |
| 20260509073121 | 5 | 171 | 4.8 | 0.0 | 0.00 | 0.00 | 0.00 | 74 | 1010.0 |
| 20260509071537 | 5 | 185 | 9.7 | 0.0 | 0.00 | 0.00 | 0.00 | 74 | 1010.1 |
| 20260509070035 | 5 | 194 | 8.0 | 0.0 | 0.00 | 0.00 | 0.00 | 73 | 1010.1 |
| 20260509064533 | 5 | 186 | 9.7 | 0.0 | 0.00 | 0.00 | 0.00 | 73 | 1010.2 |
| 20260509063032 | 5 | 196 | 8.0 | 0.0 | 0.00 | 0.00 | 0.00 | 72 | 1010.2 |
| 20260509061527 | 5 | 182 | 9.7 | 0.0 | 0.00 | 0.00 | 0.00 | 72 | 1010.2 |